Overview Statistics Trail Chart Weather Telemetry Raw packets
 

This is the latest recevied weather packets stored in our database for station/object VE3TEJ. If no packets are shown the sender has not sent any weather packets the latest 10 day(s).

<< 129 130 131 132 133 134 >>
Time Temp. Humidity Pressure Rain* Wind** Luminosity Snow
1787776924 24.44° C 62% 1018.9 hPa 0 mm - - -
1787776623 24.44° C 62% 1018.8 hPa 0 mm - - -
1787776323 24.44° C 61% 1018.7 hPa 0 mm - - -
1787776306 24.44° C 61% 1018.7 hPa 0 mm - - -
1787776025 24.44° C 61% 1018.9 hPa 0 mm - - -
1787775725 24.44° C 61% 1018.8 hPa 0 mm - - -
1787775424 25° C 61% 1018.7 hPa 0 mm - - -
1787775124 25° C 62% 1019 hPa 0 mm - - -
1787774824 25° C 59% 1018.8 hPa 0 mm - - -
1787774523 25° C 61% 1019 hPa 0 mm - - -
1787774507 25° C 60% 1019.1 hPa 0 mm - - -
1787774223 25° C 63% 1019.1 hPa 0 mm - - -
1787773924 25° C 62% 1019.2 hPa 0 mm - - -
1787773623 25° C 63% 1019.3 hPa 0 mm - - -
1787773607 25° C 63% 1019.5 hPa 0 mm - - -
1787773325 25° C 63% 1019.2 hPa 0 mm - - -
1787773025 25.56° C 63% 1019.2 hPa 0 mm - - -
1787772724 25.56° C 62% 1019.3 hPa 0 mm - - -
1787772708 25.56° C 62% 1019.3 hPa 0 mm - - -
1787772423 25.56° C 63% 1019.4 hPa 0 mm - - -
1787772125 25.56° C 61% 1019.4 hPa 0 mm - - -
1787771824 26.11° C 61% 1019.3 hPa 0 mm - - -
1787771807 26.11° C 60% 1019.4 hPa 0 mm - - -
1787771523 26.11° C 59% 1019.4 hPa 0 mm - - -
1787771225 26.67° C 57% 1019.3 hPa 0 mm - - -

* Rain latest hour (hover to see other rain measurements)
** Current wind speed in m/s (hover to see current wind gust speed)